Hlavní strana
METAR-TAF:

METAR-TAF

Letiště :

Downtown_Memorial_Airport

Spartanburg, Jižní Karolína, Spojené státy americké

zeměpisná šířka: 34-55N, zeměpisná délka: 081-57W, výška: 246 m

Aktuální stav počasí

Zpráva byla vytvořena před 5 minutami, v 18:15 UTC
Západní vítr 8 kt
Teplota 7°C
Vlhkost vzduchu 36%
Tlak 1019 hPa
Viditelnost: 16.1 km
Jasno

METAR: KSPA 271815Z AUTO 26008KT 10SM CLR 07/M07 A3008 RMK AO2

Čas: 13:20 (18:20 UTC)


TAF: chybějící

Stav a předpovědi počasí z více než 4 000 letišť (zprávy METAR a TAF).

Červené a žluté tečky na mapě představují dostupné meteorologické stanice.

Když kurzor umístíte na tečku, zobrazí se název stanice.

Pak kliknutím zobrazíte stav a předpověď počasí.

Chcete-li změnit mapu, kliknutím na zelené tlačítko se znaménkem +mapu přiblížíte, kliknutím na zelené tlačítko se znaménkem – mapu oddálíte a kliknutím na zelené šipky přejdete na sousední mapy.


METAR-TAF: